Location: *
(60.1759°S, 155.0663°W)
Time: 01:48:03
(UTC+00:00)

COSMOS 2455 - Pass Details

Date: 17 September 2019
Orbit: 900 x 909 km, 67.1° (Epoch: 21 October)

Event Time Altitude Azimuth Distance (km) Brightness Sun altitude
Exits shadow 13:45:03 - 242° (WSW) 2,725 5.1 -19.6°
Reaches altitude 10° 13:45:22 10° 241° (WSW) 2,615 5.0 -19.6°
Maximum altitude 13:51:14 48° 166° (SSE) 1,190 3.7 -19.0°
Drops below altitude 10° 13:57:05 10° 92° (E) 2,610 6.2 -18.3°
Sets 13:59:43 0° 86° (E) 3,549 6.9 -18.1°
